Regional Weather Roundup
Issued by NWS Mobile, AL

Home | Current Version | Previous Version | Text Only | Print | Product List | Glossary On
Versions: 1 2 3 4 5 6 7 8 9 10 11 12 13 14 15 16 17 18 19 20 21 22 23 24 25 26 27 28 29 30 31 32 33 34 35 36 37 38 39 40 41 42 43 44 45 46 47 48 49 50
000
ASUS44 KMOB 241010
RWRMOB
REGIONAL WEATHER ROUNDUP
NATIONAL WEATHER SERVICE MOBILE AL
500 AM CDT THU JUL 24 2014

NOTE: "FAIR" INDICATES FEW OR NO CLOUDS BELOW 12,000 FEET WITH NO
      SIGNIFICANT WEATHER AND/OR OBSTRUCTIONS TO VISIBILITY.

  * THESE STATIONS ARE PART OF THE UNIVERSITY OF SOUTH ALABAMA
    MESONET AND ARE NOT UNDER NWS OR FAA QUALITY CONTROL.

ALZ061>064-241100-
COASTAL ALABAMA

CITY           SKY/WX    TMP DP  RH WIND       PRES   REMARKS
MOBILE REG APT CLEAR     70  70 100 N6        29.99R
BROOKLEY FIELD CLEAR     72  71  97 CALM      29.99R
USA CAMPUS*      N/A     70  70 100 CALM      29.98R
DOG RIVER*       N/A     72  72 100 CALM      29.98S


CITY           SKY/WX    TMP DP  RH WIND       PRES   REMARKS
MOUNT VERNON*    N/A     64  64 100 CALM      29.99R
SARALAND*      NOT AVBL
BAY MINETTE*   NOT AVBL
LOXLEY*          N/A    N/A N/A N/A CALM      29.99R
ROBERTSDALE*     N/A    N/A N/A N/A CALM      29.99R
FAIRHOPE*        N/A     70  70 100 CALM      29.98R
ELBERTA*         N/A     72  59  64 CALM      29.98R
FOLEY*         NOT AVBL
GRAND BAY*       N/A     70  70 100 CALM      29.96S
DAUPHIN ISLND* NOT AVBL
BON SCOUR NWR* NOT AVBL
GULF SHORES    CLEAR     72  72  99 CALM      29.98R

$$

ALZ051>060-241100-
INTERIOR SOUTHWEST AND SOUTH CENTRAL ALABAMA

CITY           SKY/WX    TMP DP  RH WIND       PRES   REMARKS
GREENVILLE     CLEAR     73  70  90 CALM      29.99S FOG
EVERGREEN      CLEAR     70  68  93 CALM      30.00S FOG
CASTLEBERRY*   NOT AVBL
ATMORE*          N/A     72  72 100 CALM      30.01R
DIXIE*         NOT AVBL
ANDALUSIA/OPP  CLEAR     73  69  87 CALM      30.00R
ANDALUSIA*     NOT AVBL
FLORALA APT    CLEAR     72  69  90 CALM      30.01S
FLORALA*         N/A     70  68  94 CALM      29.97S

$$

FLZ001>006-241100-
WESTERN FLORIDA PANHANDLE

CITY           SKY/WX    TMP DP  RH WIND       PRES   REMARKS
PENSACOLA      CLEAR     73  71  93 SW3       29.98R
NAS PENSACOLA  CLEAR     73  72  96 CALM      29.98R
MILTON         CLEAR     71  68  90 CALM      29.99R FOG
WHTNG S FIELD  CLEAR     73  71  93 CALM      29.99R


CITY           SKY/WX    TMP DP  RH WIND       PRES   REMARKS
WALNUT HILL*   NOT AVBL
JAY*           NOT AVBL
DUKE FIELD     CLEAR     71  71 100 CALM      29.99S
CRESTVIEW      CLEAR     69  68  96 CALM      30.01R FOG
VALPARAISO     PTCLDY    74  72  92 N2        29.98R
DESTIN         CLEAR     79  74  84 CALM      29.98S

$$

MSZ076-079-241100-
INTERIOR SOUTHEAST MISSISSIPPI

CITY           SKY/WX    TMP DP  RH WIND       PRES   REMARKS
LEAKESVILLE*   NOT AVBL
AGRICOLA*      NOT AVBL

$$

MARINE OBSERVATIONS

STATION/POSITION TIME  TEMP    WIND        PRES    WAVE
                       AIR SEA DIR/SP/G            HT/PER
                 (UTC) (F)     (DEG/KT/KT) (MB)    (FT/S)
PASCAGOULA       0900   80     190/  6/  8 1014.5R
PETIT BOIS ISLND 0900   81     230/  8/  9 1015.2R
KATRINA CUT      0900   81     230/  9     1015.6R
CEDAR POINT      0900   80     220/ 10     1014.6F
E DAUPHIN ISLAND 0900   81     210/  6/  8 1014.7R
MIDDLE BAY LIGHT 0900   80     260/  7     1014.2S
USCG MOBILE BAY  0900   76 83  340/  1/  2 1014.0R
STATE DOCKS      0900   76 84              1014.9R
MEAHER PARK      0900   78     300/  3     1014.9R
WEEKS BAY        0900   65                   N/A
12 S ORANGE BCH  1000   81 82  240/  8/ 10 1015.2R   1/ 3
PENSACOLA BAY    0900   80 84  310/  2/  3 1015.3R
64 S DAUPHIN ISL 0947   82 84  210/ 12/ 14 1014.9S
67 S FORT MORGAN 0900   75                 1018.3S

$$

SELECTED LOCATIONS ACROSS THE REGION

CITY           SKY/WX    TMP DP  RH WIND       PRES   REMARKS
NEW ORLEANS    PTCLDY    75  72  90 S3        29.96R
GULFPORT       PTCLDY    76  71  85 CALM      29.96R
PASCAGOULA AP  CLEAR     71  70  96 CALM      29.97S
PASCAGOULA*      N/A     75  75 100 S3        29.96S
HATTIESBURG    CLEAR     72  70  93 CALM      29.99R
LAUREL         CLEAR     70  66  88 S5        29.99S
MERIDIAN       PTCLDY    70  68  93 SW3       29.98R
JACKSON        CLEAR     71  70  96 CALM      29.98R
MONTGOMERY     PTCLDY    74  71  91 NW3       29.99R FOG
TROY           CLEAR     72  70  93 CALM      30.01R FOG
KINSTON*       NOT AVBL
GENEVA*          N/A     68  66  94 CALM      30.02R
ASHFORD*       NOT AVBL
DOTHAN         CLEAR     73  71  93 W3        30.04R
PANAMA CITY    CLEAR     74  71  91 CALM      29.98S

$$



USA.gov is the U.S. government's official web portal to all federal, state and local government web resources and services.